Location: Fort Wayne
(41.1310°N, 85.1290°W)
Time: 18:06:16
(UTC-04:00)

BREEZE-M DEB (TANK) - Visible Passes

Search period start: 29 September 2016 00:00
Search period end: 09 October 2016 00:00
Orbit: 285 x 13314 km, 49.6° (Epoch: 28 September)

Date Brightness Start Highest point End Pass type
(mag) Time Alt. Az. Time Alt. Az. Time Alt. Az.
30 Sep 5.4 20:29:24 10° NW 20:52:35 53° WSW 20:58:16 10° SSE visible
01 Oct 9.6 07:20:14 10° ESE 08:09:10 18° E 08:42:35 10° ENE visible
01 Oct 5.8 21:47:15 10° WNW 21:58:26 21° W 22:03:16 10° SSW visible
03 Oct 5.4 19:24:09 10° WNW 19:56:03 72° SW 20:02:33 10° SE visible
04 Oct 10.1 07:00:18 10° E 07:12:43 11° E 07:23:53 10° ENE visible
04 Oct 5.6 20:44:07 10° NW 21:02:56 36° WSW 21:08:35 10° S visible
05 Oct 9.3 07:07:57 10° SE 08:17:11 26° E 09:00:33 10° ENE visible
05 Oct 6.4 22:03:19 10° WNW 22:07:43 12° W 22:10:47 10° WSW visible
07 Oct 5.6 19:39:30 10° NW 20:06:41 53° WSW 20:13:01 10° SSE visible
08 Oct 9.7 06:28:38 10° ESE 07:19:28 18° E 07:55:17 10° ENE visible
08 Oct 6.1 20:58:31 10° WNW 21:12:17 23° W 21:17:49 10° SSW visible
